Wind_Speed
17 18 19 21 21 21 21 21 21 20 19 18 18 17 16 15 15 16 18 20 22 24 26 28 29 30 31 32 33 35 36 35 34 33 33 31 29 27 28 28 27 26 25
17 18 19 20 21 21 21 21 21 20 20 19 18 17 16 15 14 13 14 16 18 20 22 24 26 28 29 31 32 33 35 36 35 35 35 34 31 30 30 29 29 29 29
16 18 19 20 21 21 21 21 21 21 20 19 19 17 16 15 14 12 12 13 14 17 19 21 23 25 27 29 31 32 34 35 36 37 36 35 34 33 33 32 32 31 31
16 17 18 19 20 21 21 21 21 22 21 20 20 19 17 16 14 13 11 11 12 14 16 19 21 22 24 27 29 31 32 33 35 37 38 37 36 36 35 35 34 33 33
15 16 17 19 20 21 21 21 22 22 22 21 21 20 19 17 16 14 13 12 12 12 13 15 18 20 22 24 27 30 31 33 34 36 37 38 38 38 38 37 36 36 35
14 15 16 18 19 20 21 22 22 22 22 22 22 21 20 19 18 17 15 14 13 13 13 13 15 17 20 22 24 27 30 32 34 36 36 37 38 39 39 39 40 38 37
13 14 16 17 19 20 21 22 23 23 23 23 23 22 21 21 20 19 18 16 14 13 13 14 14 15 18 20 22 25 28 30 32 34 36 37 38 38 40 41 41 41 40
12 14 15 17 18 19 20 22 23 23 24 24 24 23 23 22 22 21 20 18 16 15 14 14 14 15 17 19 22 24 26 28 31 33 35 36 38 38 40 41 41 41 41
11 13 14 16 17 19 20 21 22 23 24 24 24 24 24 23 23 22 22 20 18 16 15 14 15 15 16 18 20 22 25 27 29 32 34 35 37 39 40 41 42 41 41
10 12 14 15 17 18 19 20 21 22 23 24 24 24 24 25 24 24 23 22 20 18 16 16 16 15 16 17 18 20 23 25 27 30 32 34 36 38 39 41 42 42 42
10 12 13 15 16 17 18 19 20 21 22 23 24 24 24 25 25 25 25 24 23 20 18 18 17 17 16 16 17 19 21 23 26 28 30 32 34 36 37 39 41 42 43
10 11 13 14 15 17 18 19 20 21 22 22 23 24 24 24 24 25 25 25 24 23 21 20 19 18 17 17 16 17 19 20 23 25 27 29 32 34 36 38 40 41 42
10 11 12 14 15 17 18 19 20 21 22 22 23 23 24 24 24 25 25 25 25 24 24 23 21 20 19 18 17 16 17 18 20 22 24 26 29 31 34 36 38 39 41
10 11 13 14 15 17 18 19 20 21 21 22 23 23 24 24 24 24 25 25 25 25 25 24 23 22 21 19 18 16 16 17 18 19 21 23 26 29 31 33 35 37 39
10 12 13 14 16 17 18 19 20 21 21 22 23 23 24 24 25 25 25 25 25 25 25 25 25 24 23 21 19 17 16 16 16 17 19 21 24 26 29 31 33 35 37
11 13 14 15 16 17 18 19 20 20 21 22 23 23 24 25 25 25 26 26 26 26 26 26 26 25 24 22 20 18 16 15 14 15 16 18 21 24 26 28 31 33 35
13 14 15 15 16 17 19 20 20 21 22 22 23 24 24 25 25 25 25 26 26 26 26 26 26 26 25 24 21 19 17 15 13 12 14 16 18 21 23 26 29 31 33
14 15 16 17 17 18 19 20 21 22 22 23 23 24 24 25 25 25 25 26 26 26 26 26 27 27 26 25 23 21 18 16 14 12 13 14 15 18 20 23 25 27 29
15 16 17 18 18 19 20 20 21 22 22 23 23 24 24 25 25 26 26 25 26 26 26 26 26 26 26 25 24 22 20 17 16 14 13 12 13 14 16 19 22 25 27
16 17 18 19 19 20 21 21 22 23 23 24 24 25 25 25 26 26 26 25 25 26 26 26 26 26 26 25 24 23 21 19 17 15 13 12 11 12 13 15 18 20 23
18 18 19 20 20 21 22 22 23 24 24 25 25 26 26 26 26 26 27 26 26 25 25 26 25 25 25 25 25 23 22 20 19 16 14 13 11 11 11 12 14 17 19
19 19 20 21 22 23 23 24 24 25 26 26 27 27 27 27 27 27 27 27 26 26 26 25 25 25 25 25 25 24 23 21 19 18 16 14 12 11 11 11 11 13 15
20 21 22 22 23 24 24 25 26 27 27 28 28 28 28 28 28 27 27 27 27 26 26 25 25 24 24 24 24 24 23 21 20 18 16 14 12 11 11 10 10 10 11
22 23 24 24 25 25 26 27 28 29 29 30 30 30 29 29 29 28 28 28 27 26 26 25 25 24 24 23 23 23 22 21 20 19 17 15 13 12 11 10 9 8 9
24 25 25 26 27 27 28 29 30 32 32 32 32 32 31 31 30 29 29 29 28 28 27 26 25 24 24 23 23 22 22 21 20 18 17 15 14 12 11 10 9 7 7
26 26 27 28 29 30 31 32 33 34 34 34 33 33 32 31 31 30 29 29 28 28 28 27 26 25 24 24 23 23 22 21 20 19 18 16 14 13 11 10 9 8 8
Wind_Direction
353 354 353 353 353 352 351 350 348 345 342 338 334 329 324 315 301 286 275 267 262 260 258 257 255 253 251 250 249 248 249 249 247 245 242 240 236 233 233 232 230 227 224
356 358 358 359 360 360 359 358 356 355 352 350 347 342 337 330 319 304 288 276 268 264 261 258 256 253 251 250 248 247 247 247 247 246 245 242 238 238 237 236 234 230 227
357 360 1 3 4 5 5 4 4 3 1 359 357 353 348 343 337 324 307 291 279 272 267 262 258 256 253 251 249 247 247 246 246 246 245 243 242 240 240 238 236 234 231
1 2 3 6 8 9 9 8 9 9 8 7 5 3 359 354 349 341 330 313 297 285 276 269 263 259 256 252 249 248 247 246 244 245 245 244 242 241 240 240 237 235 233
3 5 9 11 13 14 15 15 14 13 12 11 10 9 7 3 358 350 341 330 317 303 292 280 269 262 258 255 251 249 247 247 244 244 244 242 241 240 240 240 238 236 234
9 12 15 16 18 19 19 18 17 16 15 15 14 13 11 8 4 359 350 340 328 317 306 294 281 269 262 258 254 251 249 248 247 246 244 242 241 240 239 239 239 238 236
16 18 19 21 21 21 20 20 19 19 18 17 16 15 13 12 8 4 358 350 341 329 318 307 294 280 270 264 259 255 251 249 248 247 245 243 241 240 239 238 238 238 238
19 21 22 23 22 21 21 21 21 21 20 20 19 18 17 15 13 10 5 359 352 342 331 320 308 295 282 272 265 260 255 252 250 247 246 244 242 241 239 238 237 237 237
21 22 22 23 22 22 21 21 20 20 19 19 19 19 18 16 14 12 9 5 359 352 342 332 322 308 294 282 272 265 258 255 252 250 248 246 244 242 241 239 238 238 237
22 22 21 21 21 20 19 19 18 18 18 18 18 17 16 15 14 11 9 6 2 357 351 342 333 322 308 294 282 273 264 259 255 252 250 247 244 243 242 240 240 238 237
22 21 19 17 17 17 16 15 15 15 15 15 15 15 14 13 13 12 10 8 6 3 357 350 342 334 323 308 293 282 272 264 259 255 252 248 245 243 241 241 241 240 239
15 14 13 12 12 11 11 11 11 11 11 10 10 10 10 10 10 9 9 9 8 6 1 355 350 342 333 321 308 293 281 271 263 257 252 248 245 243 242 241 240 239 239
5 5 4 4 5 5 5 6 6 6 6 6 5 6 6 5 6 6 6 7 6 5 2 358 354 348 342 333 321 307 293 280 269 260 253 249 247 244 243 241 240 240 240
353 353 354 355 356 357 358 358 359 0 0 0 0 1 2 2 2 2 3 3 3 2 2 360 356 352 347 340 331 319 305 291 277 266 258 252 248 246 244 242 240 240 239
341 343 345 346 347 349 351 352 353 353 354 354 355 355 356 358 359 359 360 360 360 359 359 359 358 356 352 347 340 331 317 303 287 273 263 256 252 248 245 243 241 240 239
332 335 337 340 342 343 345 346 347 348 349 350 350 351 351 353 354 355 357 357 358 358 358 358 357 356 355 351 346 341 332 318 300 283 272 264 257 251 248 246 244 242 241
324 327 331 333 335 337 339 340 341 343 344 345 347 348 349 350 351 352 353 354 356 357 357 358 358 358 357 355 352 348 343 335 320 300 286 276 265 256 251 248 246 244 242
317 321 325 327 329 331 333 335 336 338 339 341 343 344 346 347 348 349 350 352 353 354 355 357 358 359 358 357 357 354 349 344 336 321 305 291 278 263 256 251 248 246 244
313 317 320 322 325 327 329 330 331 332 334 335 337 340 342 344 345 347 348 349 350 351 353 354 356 358 358 357 357 356 353 347 341 332 320 305 292 274 262 254 249 247 244
309 313 316 318 321 323 325 326 327 328 329 330 332 334 336 338 340 342 344 346 347 349 350 352 353 355 356 356 356 355 354 352 347 341 332 319 304 290 275 264 255 250 247
306 310 313 315 317 320 321 322 323 324 325 326 328 329 331 333 335 337 339 341 342 344 346 348 350 351 353 354 356 356 355 353 351 347 339 330 318 302 291 280 262 252 248
303 306 309 312 314 316 317 318 319 321 322 323 324 325 326 328 330 331 333 335 337 338 340 343 345 348 350 352 354 355 355 354 352 350 345 339 331 322 308 295 277 259 250
300 303 306 309 311 313 314 314 315 316 318 319 319 320 322 323 324 326 327 329 331 333 334 336 339 343 345 348 350 352 352 353 352 351 348 343 337 332 321 308 294 271 253
298 301 304 306 309 311 312 312 312 313 314 315 315 316 317 318 319 320 321 322 324 327 329 331 333 335 339 342 345 347 349 350 350 349 348 346 340 333 328 321 307 285 264
297 299 302 305 307 309 310 311 311 311 312 312 311 312 313 314 315 315 316 317 319 320 323 325 327 329 331 333 337 340 344 346 347 347 346 344 341 336 330 323 313 297 275
295 297 300 302 305 307 309 309 310 310 310 310 309 309 310 310 311 312 312 313 314 316 317 319 321 322 324 326 328 331 334 338 340 341 342 342 340 337 332 323 312 301 289
Height
5848 5845 5841 5837 5832 5828 5823 5819 5815 5811 5807 5803 5800 5796 5794 5791 5789 5788 5788 5788 5790 5791 5793 5795 5798 5801 5804 5808 5811 5815 5819 5823 5827 5831 5835 5838 5843 5846 5851 5855 5859 5862 5865
5847 5844 5840 5836 5832 5827 5823 5818 5814 5810 5805 5802 5798 5795 5792 5789 5787 5785 5784 5784 5785 5786 5787 5789 5791 5794 5797 5800 5804 5807 5811 5815 5819 5823 5826 5831 5836 5840 5844 5848 5852 5856 5860
5847 5844 5840 5836 5832 5827 5823 5818 5814 5810 5805 5801 5797 5794 5790 5788 5785 5783 5782 5781 5781 5781 5782 5783 5785 5787 5790 5793 5796 5799 5803 5807 5811 5815 5819 5824 5829 5833 5837 5841 5846 5850 5853
5847 5844 5840 5836 5832 5828 5823 5819 5814 5810 5806 5802 5798 5794 5790 5787 5784 5782 5780 5779 5778 5778 5778 5778 5779 5781 5783 5786 5788 5792 5795 5798 5802 5806 5811 5816 5820 5825 5829 5834 5838 5842 5847
5848 5844 5841 5837 5833 5828 5824 5819 5815 5811 5807 5802 5798 5794 5791 5787 5784 5781 5779 5777 5776 5775 5774 5774 5774 5775 5777 5779 5781 5784 5787 5791 5794 5798 5802 5806 5811 5816 5821 5826 5830 5835 5839
5848 5845 5841 5837 5833 5829 5825 5821 5817 5812 5808 5803 5799 5795 5791 5788 5784 5781 5778 5776 5774 5772 5771 5770 5770 5770 5771 5773 5774 5777 5779 5782 5786 5789 5793 5798 5802 5807 5812 5817 5822 5826 5831
5848 5845 5842 5838 5835 5831 5827 5822 5818 5813 5809 5805 5800 5796 5792 5789 5785 5781 5778 5775 5772 5770 5768 5767 5766 5765 5766 5767 5768 5770 5772 5774 5777 5781 5785 5789 5793 5798 5802 5807 5812 5817 5822
5849 5846 5843 5839 5836 5832 5828 5824 5820 5815 5811 5806 5802 5798 5793 5789 5785 5781 5778 5774 5771 5768 5766 5764 5762 5762 5761 5761 5762 5763 5765 5767 5769 5772 5775 5779 5784 5788 5792 5797 5802 5807 5812
5849 5847 5844 5840 5837 5833 5829 5825 5821 5817 5813 5808 5804 5799 5795 5791 5786 5782 5778 5774 5770 5767 5764 5762 5760 5758 5757 5756 5756 5757 5758 5759 5761 5763 5766 5770 5774 5778 5783 5787 5792 5798 5803
5850 5847 5844 5841 5838 5834 5831 5827 5823 5819 5814 5810 5805 5801 5796 5792 5787 5782 5778 5773 5769 5765 5763 5760 5757 5755 5753 5751 5750 5750 5751 5752 5753 5755 5757 5760 5764 5768 5772 5777 5782 5787 5792
5850 5848 5845 5842 5839 5835 5832 5828 5824 5820 5816 5811 5807 5802 5798 5793 5788 5783 5778 5773 5769 5765 5761 5758 5755 5752 5749 5747 5745 5744 5744 5744 5745 5746 5748 5751 5754 5758 5762 5766 5771 5776 5782
5850 5848 5845 5843 5839 5836 5833 5829 5825 5821 5817 5812 5808 5803 5799 5794 5789 5784 5779 5774 5769 5765 5761 5757 5753 5749 5746 5743 5740 5738 5737 5737 5737 5738 5739 5742 5745 5748 5752 5757 5761 5766 5771
5850 5848 5845 5843 5840 5836 5833 5829 5825 5821 5817 5813 5808 5804 5799 5794 5790 5785 5780 5775 5770 5765 5760 5756 5751 5747 5743 5739 5736 5733 5731 5730 5730 5730 5732 5734 5737 5740 5743 5747 5751 5756 5761
5850 5848 5845 5842 5839 5836 5833 5829 5825 5821 5817 5813 5808 5804 5799 5794 5790 5785 5780 5775 5769 5764 5759 5754 5750 5745 5740 5736 5732 5729 5726 5725 5724 5724 5725 5727 5729 5731 5734 5738 5742 5746 5751
5849 5847 5844 5841 5838 5835 5832 5828 5824 5820 5816 5812 5808 5803 5799 5794 5789 5784 5779 5774 5769 5763 5758 5753 5748 5743 5738 5733 5729 5725 5722 5720 5718 5718 5719 5720 5722 5724 5726 5729 5733 5737 5741
5847 5845 5843 5840 5837 5834 5830 5827 5823 5819 5815 5811 5807 5802 5798 5793 5788 5783 5778 5773 5768 5763 5757 5752 5747 5742 5736 5731 5726 5722 5719 5716 5714 5713 5713 5714 5715 5716 5718 5721 5725 5728 5732
5845 5843 5841 5838 5835 5832 5829 5825 5821 5818 5814 5810 5805 5801 5796 5792 5787 5782 5777 5772 5767 5762 5757 5752 5746 5741 5735 5730 5725 5721 5717 5713 5711 5709 5709 5709 5709 5710 5711 5714 5716 5719 5723
5843 5840 5838 5835 5833 5829 5826 5823 5819 5815 5812 5808 5804 5799 5795 5791 5786 5781 5776 5771 5766 5762 5756 5751 5746 5740 5735 5729 5724 5720 5715 5712 5709 5707 5705 5704 5703 5704 5705 5707 5709 5712 5715
5839 5837 5835 5832 5830 5827 5823 5820 5817 5813 5809 5805 5801 5797 5793 5789 5785 5780 5775 5770 5765 5761 5756 5751 5746 5740 5735 5730 5724 5719 5715 5711 5707 5705 5702 5701 5700 5699 5700 5701 5703 5705 5707
5836 5834 5831 5829 5826 5823 5820 5817 5813 5810 5806 5802 5799 5795 5791 5787 5782 5778 5774 5769 5764 5759 5755 5750 5745 5740 5735 5730 5724 5720 5715 5711 5707 5703 5700 5698 5697 5696 5695 5696 5697 5699 5700
5832 5830 5828 5825 5823 5820 5817 5813 5810 5806 5803 5799 5795 5792 5788 5784 5780 5776 5771 5767 5763 5758 5753 5749 5744 5740 5735 5729 5724 5720 5715 5711 5706 5703 5699 5697 5695 5693 5693 5692 5692 5693 5695
5828 5826 5824 5821 5818 5815 5813 5809 5806 5803 5799 5795 5791 5788 5784 5780 5777 5773 5769 5764 5760 5756 5752 5747 5743 5739 5734 5729 5724 5720 5715 5711 5707 5703 5699 5696 5694 5692 5691 5690 5689 5689 5690
5823 5821 5819 5816 5814 5811 5808 5805 5801 5798 5794 5791 5787 5784 5780 5776 5773 5769 5765 5761 5757 5753 5749 5745 5741 5737 5733 5728 5724 5719 5715 5710 5706 5703 5699 5696 5693 5691 5690 5688 5687 5687 5687
5818 5816 5813 5811 5809 5806 5803 5799 5796 5792 5789 5786 5782 5779 5775 5772 5768 5764 5761 5757 5753 5750 5746 5742 5739 5735 5731 5727 5723 5719 5714 5710 5706 5703 5699 5696 5693 5691 5689 5687 5686 5685 5685
5812 5810 5808 5805 5803 5800 5797 5794 5790 5786 5783 5779 5776 5772 5769 5766 5762 5759 5755 5752 5748 5745 5742 5738 5735 5732 5728 5725 5721 5717 5713 5710 5706 5702 5699 5696 5693 5691 5689 5687 5685 5684 5684
5805 5803 5801 5799 5796 5793 5790 5787 5783 5779 5776 5772 5769 5765 5762 5759 5756 5753 5750 5746 5743 5740 5736 5733 5730 5727 5724 5721 5718 5715 5711 5708 5705 5701 5698 5695 5693 5690 5688 5686 5685 5684 5683